Time,TemperatureF,DewpointF,PressureIn,WindDirection,WindDirectionDegrees,WindSpeedMPH,WindSpeedGustMPH,Humidity,HourlyPrecipIn,Conditions,Clouds,dailyrainin,SolarRadiationWatts/m^2,SoftwareType,DateUTC
2013-09-28 01:05:00,53.1,50.5,30.27,East,83,0.0,0.0,91,0.00,,,0.00,0,Wunderground v.1.15,2013-09-28 05:05:00,
2013-09-28 01:15:00,52.7,50.1,30.27,East,83,0.0,0.0,91,0.00,,,0.00,0,Wunderground v.1.15,2013-09-28 05:15:00,
2013-09-28 01:25:00,52.4,49.8,30.26,East,83,0.0,0.0,91,0.00,,,0.00,0,Wunderground v.1.15,2013-09-28 05:25:00,
2013-09-28 01:30:00,52.3,49.8,30.26,East,83,0.0,0.0,91,0.00,,,0.00,0,Wunderground v.1.15,2013-09-28 05:30:00,
2013-09-28 01:40:00,52.1,49.6,30.26,East,83,0.0,0.0,91,0.00,,,0.00,0,Wunderground v.1.15,2013-09-28 05:40:00,
2013-09-28 01:45:00,52.0,49.5,30.26,East,83,0.0,0.0,91,0.00,,,0.00,0,Wunderground v.1.15,2013-09-28 05:45:00,
2013-09-28 01:55:00,51.8,49.3,30.26,East,83,0.0,0.0,91,0.00,,,0.00,0,Wunderground v.1.15,2013-09-28 05:55:00,
2013-09-28 02:00:00,51.7,49.2,30.26,East,83,0.0,0.0,91,0.00,,,0.00,0,Wunderground v.1.15,2013-09-28 06:00:00,
2013-09-28 02:05:00,51.6,49.1,30.26,East,83,0.0,0.0,91,0.00,,,0.00,0,Wunderground v.1.15,2013-09-28 06:05:00,
2013-09-28 02:10:00,51.5,49.0,30.26,East,83,0.0,0.0,91,0.00,,,0.00,0,Wunderground v.1.15,2013-09-28 06:10:00,
2013-09-28 02:20:00,51.3,48.8,30.26,East,83,0.0,0.0,91,0.00,,,0.00,0,Wunderground v.1.15,2013-09-28 06:20:00,
2013-09-28 02:30:00,51.1,48.6,30.26,East,83,0.0,0.0,91,0.00,,,0.00,0,Wunderground v.1.15,2013-09-28 06:30:00,
2013-09-28 02:35:00,51.0,48.5,30.26,East,83,0.0,0.0,91,0.00,,,0.00,0,Wunderground v.1.15,2013-09-28 06:35:00,
2013-09-28 02:40:00,50.9,48.7,30.26,East,83,0.0,0.0,92,0.00,,,0.00,0,Wunderground v.1.15,2013-09-28 06:40:00,
2013-09-28 02:50:00,50.8,48.6,30.25,East,83,0.0,0.0,92,0.00,,,0.00,0,Wunderground v.1.15,2013-09-28 06:50:00,
2013-09-28 02:55:00,50.8,48.6,30.25,East,83,0.0,0.0,92,0.00,,,0.00,0,Wunderground v.1.15,2013-09-28 06:55:00,
2013-09-28 03:05:00,50.7,48.5,30.25,East,83,0.0,0.0,92,0.00,,,0.00,0,Wunderground v.1.15,2013-09-28 07:05:00,
2013-09-28 03:10:00,50.7,48.5,30.25,East,83,0.0,0.0,92,0.00,,,0.00,0,Wunderground v.1.15,2013-09-28 07:10:00,
2013-09-28 03:20:00,50.7,48.5,30.25,East,83,0.0,0.0,92,0.00,,,0.00,0,Wunderground v.1.15,2013-09-28 07:20:00,
2013-09-28 03:25:00,50.7,48.5,30.25,East,83,0.0,0.0,92,0.00,,,0.00,0,Wunderground v.1.15,2013-09-28 07:25:00,
2013-09-28 03:35:00,50.6,48.4,30.25,East,83,0.0,0.0,92,0.00,,,0.00,0,Wunderground v.1.15,2013-09-28 07:35:00,
2013-09-28 03:45:00,50.7,48.5,30.25,East,83,0.0,0.0,92,0.00,,,0.00,0,Wunderground v.1.15,2013-09-28 07:45:00,
2013-09-28 03:55:00,50.8,48.6,30.25,East,83,0.0,0.0,92,0.00,,,0.00,0,Wunderground v.1.15,2013-09-28 07:55:00,
2013-09-28 04:00:00,50.8,48.6,30.25,East,83,0.0,0.0,92,0.00,,,0.00,0,Wunderground v.1.15,2013-09-28 08:00:00,
2013-09-28 04:05:00,50.8,48.6,30.25,East,83,0.0,0.0,92,0.00,,,0.00,0,Wunderground v.1.15,2013-09-28 08:05:00,
2013-09-28 04:15:00,50.8,48.6,30.25,East,83,0.0,0.0,92,0.00,,,0.00,0,Wunderground v.1.15,2013-09-28 08:15:00,
2013-09-28 04:25:00,50.9,48.9,30.26,East,83,0.0,0.0,93,0.00,,,0.00,0,Wunderground v.1.15,2013-09-28 08:25:00,
2013-09-28 04:35:00,51.0,49.0,30.26,East,83,0.0,0.0,93,0.00,,,0.00,0,Wunderground v.1.15,2013-09-28 08:35:00,
2013-09-28 04:40:00,51.0,49.0,30.26,East,83,0.0,0.0,93,0.00,,,0.00,0,Wunderground v.1.15,2013-09-28 08:40:00,
2013-09-28 04:50:00,51.0,49.0,30.26,East,83,0.0,0.0,93,0.00,,,0.00,0,Wunderground v.1.15,2013-09-28 08:50:00,
2013-09-28 05:00:00,51.0,49.0,30.26,East,83,0.0,0.0,93,0.00,,,0.00,0,Wunderground v.1.15,2013-09-28 09:00:00,
2013-09-28 05:05:00,51.0,49.0,30.26,East,83,0.0,0.0,93,0.00,,,0.00,0,Wunderground v.1.15,2013-09-28 09:05:00,
2013-09-28 05:10:00,51.0,49.0,30.26,East,83,0.0,0.0,93,0.00,,,0.00,0,Wunderground v.1.15,2013-09-28 09:10:00,
2013-09-28 05:20:00,50.9,48.9,30.26,East,83,0.0,0.0,93,0.00,,,0.00,0,Wunderground v.1.15,2013-09-28 09:20:00,
2013-09-28 05:25:00,50.8,48.8,30.27,East,83,0.0,0.0,93,0.00,,,0.00,0,Wunderground v.1.15,2013-09-28 09:25:00,
2013-09-28 05:35:00,50.7,48.7,30.27,East,83,0.0,0.0,93,0.00,,,0.00,0,Wunderground v.1.15,2013-09-28 09:35:00,
2013-09-28 05:40:00,50.6,48.7,30.27,East,83,0.0,0.0,93,0.00,,,0.00,0,Wunderground v.1.15,2013-09-28 09:40:00,
2013-09-28 05:50:00,50.6,48.7,30.27,East,83,0.0,0.0,93,0.00,,,0.00,0,Wunderground v.1.15,2013-09-28 09:50:00,
2013-09-28 06:00:00,50.5,48.6,30.27,East,83,0.0,0.0,93,0.00,,,0.00,0,Wunderground v.1.15,2013-09-28 10:00:00,
2013-09-28 06:10:00,50.5,48.6,30.28,East,83,0.0,0.0,93,0.00,,,0.00,0,Wunderground v.1.15,2013-09-28 10:10:00,
2013-09-28 06:15:00,50.5,48.6,30.28,East,83,0.0,0.0,93,0.00,,,0.00,0,Wunderground v.1.15,2013-09-28 10:15:00,
2013-09-28 06:25:00,50.5,48.6,30.28,East,83,0.0,0.0,93,0.00,,,0.00,0,Wunderground v.1.15,2013-09-28 10:25:00,
2013-09-28 06:35:00,50.7,48.7,30.28,East,83,0.0,0.0,93,0.00,,,0.00,0,Wunderground v.1.15,2013-09-28 10:35:00,
2013-09-28 06:40:00,50.8,48.8,30.28,East,83,0.0,0.0,93,0.00,,,0.00,0,Wunderground v.1.15,2013-09-28 10:40:00,
2013-09-28 06:50:00,51.1,49.1,30.29,East,83,0.0,0.0,93,0.00,,,0.00,0,Wunderground v.1.15,2013-09-28 10:50:00,
2013-09-28 06:55:00,51.3,49.3,30.28,East,83,0.0,0.0,93,0.00,,,0.00,5,Wunderground v.1.15,2013-09-28 10:55:00,
2013-09-28 07:05:00,51.7,49.7,30.29,East,83,0.0,0.0,93,0.00,,,0.00,9,Wunderground v.1.15,2013-09-28 11:05:00,
2013-09-28 07:10:00,52.3,50.3,30.29,East,83,0.0,0.0,93,0.00,,,0.00,11,Wunderground v.1.15,2013-09-28 11:10:00,
2013-09-28 07:15:00,52.8,51.1,30.29,East,83,0.0,0.0,94,0.00,,,0.00,12,Wunderground v.1.15,2013-09-28 11:15:00,
2013-09-28 07:25:00,53.3,51.3,30.29,NW,321,0.0,0.0,93,0.00,,,0.00,16,Wunderground v.1.15,2013-09-28 11:25:00,
2013-09-28 07:30:00,53.9,51.9,30.29,NW,323,0.0,0.0,93,0.00,,,0.00,18,Wunderground v.1.15,2013-09-28 11:30:00,
2013-09-28 07:35:00,54.4,52.4,30.30,WNW,297,0.0,0.0,93,0.00,,,0.00,21,Wunderground v.1.15,2013-09-28 11:35:00,
2013-09-28 07:40:00,54.8,53.1,30.29,WNW,294,0.0,0.0,94,0.00,,,0.00,23,Wunderground v.1.15,2013-09-28 11:40:00,
2013-09-28 07:50:00,55.7,54.0,30.29,NNW,342,0.0,0.0,94,0.00,,,0.00,26,Wunderground v.1.15,2013-09-28 11:50:00,
2013-09-28 08:00:00,56.4,54.7,30.30,East,81,1.0,1.0,94,0.00,,,0.00,30,Wunderground v.1.15,2013-09-28 12:00:00,
2013-09-28 08:05:00,56.8,55.1,30.30,NNE,20,1.0,1.0,94,0.00,,,0.00,33,Wunderground v.1.15,2013-09-28 12:05:00,
2013-09-28 08:15:00,57.5,55.8,30.29,East,84,0.0,2.0,94,0.00,,,0.00,37,Wunderground v.1.15,2013-09-28 12:15:00,
2013-09-28 08:25:00,58.0,55.7,30.30,East,85,2.0,2.0,92,0.00,,,0.00,37,Wunderground v.1.15,2013-09-28 12:25:00,
2013-09-28 08:35:00,58.7,55.8,30.30,East,92,2.0,3.0,90,0.00,,,0.00,74,Wunderground v.1.15,2013-09-28 12:35:00,
2013-09-28 08:40:00,59.1,55.9,30.30,NNW,333,2.0,3.0,89,0.00,,,0.00,116,Wunderground v.1.15,2013-09-28 12:40:00,
2013-09-28 08:50:00,59.7,56.5,30.31,NE,37,1.0,1.0,89,0.00,,,0.00,155,Wunderground v.1.15,2013-09-28 12:50:00,
2013-09-28 08:55:00,60.0,56.1,30.31,NNW,335,2.0,2.0,87,0.00,,,0.00,149,Wunderground v.1.15,2013-09-28 12:55:00,
2013-09-28 09:05:00,60.6,56.1,30.31,ESE,108,2.0,2.0,85,0.00,,,0.00,46,Wunderground v.1.15,2013-09-28 13:05:00,
2013-09-28 09:10:00,60.9,56.4,30.31,ENE,69,2.0,5.0,85,0.00,,,0.00,44,Wunderground v.1.15,2013-09-28 13:10:00,
2013-09-28 09:20:00,61.4,56.2,30.31,East,80,2.0,2.0,83,0.00,,,0.00,46,Wunderground v.1.15,2013-09-28 13:20:00,
2013-09-28 09:30:00,61.9,56.3,30.31,East,84,3.0,3.0,82,0.00,,,0.00,46,Wunderground v.1.15,2013-09-28 13:30:00,
2013-09-28 09:35:00,62.2,56.6,30.31,NE,35,2.0,3.0,82,0.00,,,0.00,86,Wunderground v.1.15,2013-09-28 13:35:00,
2013-09-28 09:45:00,62.7,56.8,30.31,East,83,1.0,6.0,81,0.00,,,0.00,51,Wunderground v.1.15,2013-09-28 13:45:00,
2013-09-28 09:50:00,62.9,56.6,30.32,WNW,301,1.0,1.0,80,0.00,,,0.00,54,Wunderground v.1.15,2013-09-28 13:50:00,
2013-09-28 10:00:00,63.3,57.0,30.32,ENE,63,1.0,1.0,80,0.00,,,0.00,56,Wunderground v.1.15,2013-09-28 14:00:00,
2013-09-28 10:10:00,63.5,56.5,30.32,NE,55,2.0,2.0,78,0.00,,,0.00,54,Wunderground v.1.15,2013-09-28 14:10:00,
2013-09-28 10:15:00,63.8,56.8,30.32,ENE,61,2.0,2.0,78,0.00,,,0.00,56,Wunderground v.1.15,2013-09-28 14:15:00,
2013-09-28 10:25:00,63.9,56.9,30.32,ESE,115,2.0,3.0,78,0.00,,,0.00,62,Wunderground v.1.15,2013-09-28 14:25:00,
2013-09-28 10:35:00,64.5,56.8,30.32,East,85,2.0,2.0,76,0.00,,,0.00,598,Wunderground v.1.15,2013-09-28 14:35:00,
2013-09-28 10:40:00,64.9,56.8,30.32,ENE,60,2.0,7.0,75,0.00,,,0.00,610,Wunderground v.1.15,2013-09-28 14:40:00,
2013-09-28 10:45:00,65.0,56.9,30.32,ENE,76,2.0,7.0,75,0.00,,,0.00,190,Wunderground v.1.15,2013-09-28 14:45:00,
2013-09-28 10:55:00,65.8,57.3,30.32,ENE,76,2.0,2.0,74,0.00,,,0.00,70,Wunderground v.1.15,2013-09-28 14:55:00,
2013-09-28 11:00:00,66.1,57.2,30.32,NE,44,2.0,2.0,73,0.00,,,0.00,652,Wunderground v.1.15,2013-09-28 15:00:00,
2013-09-28 11:10:00,66.6,57.3,30.32,East,82,2.0,2.0,72,0.00,,,0.00,671,Wunderground v.1.15,2013-09-28 15:10:00,
2013-09-28 11:20:00,67.0,56.9,30.32,East,97,3.0,3.0,70,0.00,,,0.00,691,Wunderground v.1.15,2013-09-28 15:20:00,
2013-09-28 11:25:00,67.2,57.5,30.32,ENE,69,3.0,3.0,71,0.00,,,0.00,700,Wunderground v.1.15,2013-09-28 15:25:00,
2013-09-28 11:35:00,67.8,57.3,30.31,ENE,64,2.0,3.0,69,0.00,,,0.00,715,Wunderground v.1.15,2013-09-28 15:35:00,
2013-09-28 11:45:00,68.4,57.0,30.31,East,97,3.0,5.0,67,0.00,,,0.00,728,Wunderground v.1.15,2013-09-28 15:45:00,
2013-09-28 11:55:00,68.6,56.8,30.31,NNW,341,3.0,3.0,66,0.00,,,0.00,745,Wunderground v.1.15,2013-09-28 15:55:00,
2013-09-28 12:00:00,69.0,57.2,30.31,NE,56,2.0,3.0,66,0.00,,,0.00,766,Wunderground v.1.15,2013-09-28 16:00:00,
2013-09-28 12:10:00,68.9,57.1,30.31,East,89,3.0,7.0,66,0.00,,,0.00,770,Wunderground v.1.15,2013-09-28 16:10:00,
2013-09-28 12:15:00,69.1,56.8,30.31,ENE,69,4.0,7.0,65,0.00,,,0.00,796,Wunderground v.1.15,2013-09-28 16:15:00,
2013-09-28 12:25:00,69.2,56.9,30.31,NNE,24,2.0,3.0,65,0.00,,,0.00,796,Wunderground v.1.15,2013-09-28 16:25:00,
2013-09-28 12:35:00,69.6,57.3,30.31,ENE,68,2.0,5.0,65,0.00,,,0.00,837,Wunderground v.1.15,2013-09-28 16:35:00,
2013-09-28 12:40:00,70.1,56.9,30.30,NE,56,2.0,2.0,63,0.00,,,0.00,789,Wunderground v.1.15,2013-09-28 16:40:00,
2013-09-28 12:50:00,70.6,57.4,30.30,ENE,72,2.0,2.0,63,0.00,,,0.00,819,Wunderground v.1.15,2013-09-28 16:50:00,
2013-09-28 12:55:00,70.7,56.6,30.30,ENE,57,2.0,2.0,61,0.00,,,0.00,125,Wunderground v.1.15,2013-09-28 16:55:00,
2013-09-28 13:00:00,70.8,57.1,30.30,East,90,2.0,2.0,62,0.00,,,0.00,884,Wunderground v.1.15,2013-09-28 17:00:00,
2013-09-28 13:10:00,70.9,56.8,30.29,East,87,3.0,3.0,61,0.00,,,0.00,823,Wunderground v.1.15,2013-09-28 17:10:00,
2013-09-28 13:15:00,70.9,57.2,30.29,East,98,3.0,3.0,62,0.00,,,0.00,162,Wunderground v.1.15,2013-09-28 17:15:00,
2013-09-28 13:25:00,70.7,56.1,30.29,East,100,3.0,6.0,60,0.00,,,0.00,856,Wunderground v.1.15,2013-09-28 17:25:00,
2013-09-28 13:30:00,70.7,56.6,30.29,East,90,4.0,5.0,61,0.00,,,0.00,879,Wunderground v.1.15,2013-09-28 17:30:00,
2013-09-28 13:40:00,71.4,56.3,30.28,ENE,73,3.0,5.0,59,0.00,,,0.00,824,Wunderground v.1.15,2013-09-28 17:40:00,
2013-09-28 13:45:00,71.8,56.7,30.28,ENE,77,3.0,5.0,59,0.00,,,0.00,853,Wunderground v.1.15,2013-09-28 17:45:00,
2013-09-28 13:55:00,72.1,57.0,30.28,East,88,3.0,3.0,59,0.00,,,0.00,770,Wunderground v.1.15,2013-09-28 17:55:00,
2013-09-28 14:00:00,72.6,57.0,30.28,East,100,2.0,2.0,58,0.00,,,0.00,775,Wunderground v.1.15,2013-09-28 18:00:00,
2013-09-28 14:10:00,72.2,57.1,30.28,ENE,67,2.0,2.0,59,0.00,,,0.00,795,Wunderground v.1.15,2013-09-28 18:10:00,
2013-09-28 14:20:00,71.3,57.2,30.28,ENE,59,2.0,3.0,61,0.00,,,0.00,752,Wunderground v.1.15,2013-09-28 18:20:00,
2013-09-28 14:25:00,71.3,57.2,30.28,ESE,105,2.0,3.0,61,0.00,,,0.00,756,Wunderground v.1.15,2013-09-28 18:25:00,
2013-09-28 14:30:00,71.6,57.9,30.28,ENE,76,2.0,3.0,62,0.00,,,0.00,728,Wunderground v.1.15,2013-09-28 18:30:00,
2013-09-28 14:40:00,71.8,57.2,30.28,ENE,71,2.0,2.0,60,0.00,,,0.00,698,Wunderground v.1.15,2013-09-28 18:40:00,
2013-09-28 14:50:00,71.8,57.2,30.27,ENE,76,1.0,1.0,60,0.00,,,0.00,675,Wunderground v.1.15,2013-09-28 18:50:00,
2013-09-28 14:55:00,71.9,57.7,30.27,East,80,1.0,1.0,61,0.00,,,0.00,670,Wunderground v.1.15,2013-09-28 18:55:00,
2013-09-28 15:00:00,72.3,57.2,30.27,East,79,1.0,1.0,59,0.00,,,0.00,594,Wunderground v.1.15,2013-09-28 19:00:00,
2013-09-28 15:10:00,72.6,58.4,30.27,SSW,192,1.0,1.0,61,0.00,,,0.00,631,Wunderground v.1.15,2013-09-28 19:10:00,
2013-09-28 15:20:00,72.2,57.1,30.27,North,9,2.0,2.0,59,0.00,,,0.00,640,Wunderground v.1.15,2013-09-28 19:20:00,
2013-09-28 15:30:00,72.4,56.8,30.27,ENE,78,2.0,3.0,58,0.00,,,0.00,584,Wunderground v.1.15,2013-09-28 19:30:00,
2013-09-28 15:35:00,72.2,57.5,30.27,ENE,65,2.0,3.0,60,0.00,,,0.00,564,Wunderground v.1.15,2013-09-28 19:35:00,
2013-09-28 15:45:00,72.0,57.4,30.27,SSW,193,1.0,2.0,60,0.00,,,0.00,540,Wunderground v.1.15,2013-09-28 19:45:00,
2013-09-28 15:50:00,72.1,57.0,30.26,SSE,161,1.0,1.0,59,0.00,,,0.00,533,Wunderground v.1.15,2013-09-28 19:50:00,
2013-09-28 16:00:00,71.5,56.9,30.26,ENE,65,1.0,3.0,60,0.00,,,0.00,496,Wunderground v.1.15,2013-09-28 20:00:00,
2013-09-28 16:05:00,71.1,56.5,30.27,ENE,63,2.0,3.0,60,0.00,,,0.00,480,Wunderground v.1.15,2013-09-28 20:05:00,
2013-09-28 16:15:00,70.4,56.8,30.26,ENE,76,2.0,2.0,62,0.00,,,0.00,450,Wunderground v.1.15,2013-09-28 20:15:00,
2013-09-28 16:25:00,70.3,56.2,30.27,ENE,58,2.0,5.0,61,0.00,,,0.00,410,Wunderground v.1.15,2013-09-28 20:25:00,
2013-09-28 16:30:00,69.9,55.8,30.26,ENE,62,2.0,2.0,61,0.00,,,0.00,100,Wunderground v.1.15,2013-09-28 20:30:00,
2013-09-28 16:35:00,69.7,56.1,30.26,SE,127,2.0,2.0,62,0.00,,,0.00,81,Wunderground v.1.15,2013-09-28 20:35:00,
2013-09-28 16:45:00,69.1,55.5,30.26,ENE,76,2.0,2.0,62,0.00,,,0.00,84,Wunderground v.1.15,2013-09-28 20:45:00,
2013-09-28 16:50:00,68.7,55.6,30.26,ENE,61,1.0,2.0,63,0.00,,,0.00,58,Wunderground v.1.15,2013-09-28 20:50:00,
2013-09-28 17:00:00,68.5,56.3,30.26,East,93,1.0,1.0,65,0.00,,,0.00,60,Wunderground v.1.15,2013-09-28 21:00:00,
2013-09-28 17:10:00,68.3,55.6,30.26,ENE,65,1.0,1.0,64,0.00,,,0.00,54,Wunderground v.1.15,2013-09-28 21:10:00,
2013-09-28 17:20:00,68.2,56.4,30.26,ENE,73,0.0,1.0,66,0.00,,,0.00,107,Wunderground v.1.15,2013-09-28 21:20:00,
2013-09-28 17:25:00,68.1,56.7,30.26,ENE,74,0.0,1.0,67,0.00,,,0.00,39,Wunderground v.1.15,2013-09-28 21:25:00,
2013-09-28 17:35:00,67.7,56.8,30.26,East,80,0.0,2.0,68,0.00,,,0.00,35,Wunderground v.1.15,2013-09-28 21:35:00,
2013-09-28 17:45:00,67.2,56.7,30.26,ENE,78,0.0,1.0,69,0.00,,,0.00,28,Wunderground v.1.15,2013-09-28 21:45:00,
2013-09-28 17:55:00,66.8,56.7,30.26,ENE,67,0.0,0.0,70,0.00,,,0.00,37,Wunderground v.1.15,2013-09-28 21:55:00,
2013-09-28 18:00:00,66.7,57.0,30.26,ENE,67,0.0,0.0,71,0.00,,,0.00,23,Wunderground v.1.15,2013-09-28 22:00:00,
2013-09-28 18:10:00,66.3,57.0,30.26,ENE,67,0.0,1.0,72,0.00,,,0.00,14,Wunderground v.1.15,2013-09-28 22:10:00,
2013-09-28 18:20:00,65.8,56.9,30.26,ENE,68,0.0,0.0,73,0.00,,,0.00,7,Wunderground v.1.15,2013-09-28 22:20:00,
2013-09-28 18:30:00,65.5,57.4,30.26,ENE,68,0.0,0.0,75,0.00,,,0.00,5,Wunderground v.1.15,2013-09-28 22:30:00,
2013-09-28 18:40:00,64.9,57.2,30.26,ENE,68,0.0,0.0,76,0.00,,,0.00,0,Wunderground v.1.15,2013-09-28 22:40:00,
2013-09-28 18:45:00,64.7,57.3,30.26,ENE,68,0.0,0.0,77,0.00,,,0.00,0,Wunderground v.1.15,2013-09-28 22:45:00,
2013-09-28 18:55:00,63.9,56.9,30.26,ENE,68,0.0,0.0,78,0.00,,,0.00,0,Wunderground v.1.15,2013-09-28 22:55:00,
2013-09-28 19:05:00,62.7,56.4,30.26,ENE,68,0.0,0.0,80,0.00,,,0.00,0,Wunderground v.1.15,2013-09-28 23:05:00,
2013-09-28 19:15:00,61.7,56.1,30.26,ENE,68,0.0,0.0,82,0.00,,,0.00,0,Wunderground v.1.15,2013-09-28 23:15:00,
2013-09-28 19:20:00,61.2,56.0,30.26,ENE,68,0.0,0.0,83,0.00,,,0.00,0,Wunderground v.1.15,2013-09-28 23:20:00,
2013-09-28 19:30:00,60.4,55.5,30.26,ENE,68,0.0,0.0,84,0.00,,,0.00,0,Wunderground v.1.15,2013-09-28 23:30:00,
2013-09-28 19:40:00,59.9,55.4,30.26,ENE,68,0.0,0.0,85,0.00,,,0.00,0,Wunderground v.1.15,2013-09-28 23:40:00,
2013-09-28 19:45:00,59.6,55.1,30.26,ENE,68,0.0,0.0,85,0.00,,,0.00,0,Wunderground v.1.15,2013-09-28 23:45:00,
2013-09-28 19:55:00,59.0,54.8,30.26,ENE,68,0.0,0.0,86,0.00,,,0.00,0,Wunderground v.1.15,2013-09-28 23:55:00,
2013-09-28 20:05:00,58.5,54.6,30.26,ENE,68,0.0,0.0,87,0.00,,,0.00,0,Wunderground v.1.15,2013-09-29 00:05:00,
2013-09-28 20:10:00,58.3,54.4,30.26,ENE,68,0.0,0.0,87,0.00,,,0.00,0,Wunderground v.1.15,2013-09-29 00:10:00,
2013-09-28 20:20:00,57.8,54.3,30.27,ENE,68,0.0,0.0,88,0.00,,,0.00,0,Wunderground v.1.15,2013-09-29 00:20:00,
2013-09-28 20:25:00,57.7,54.2,30.27,ENE,68,0.0,0.0,88,0.00,,,0.00,0,Wunderground v.1.15,2013-09-29 00:25:00,
2013-09-28 20:35:00,57.3,53.8,30.27,ENE,68,0.0,0.0,88,0.00,,,0.00,0,Wunderground v.1.15,2013-09-29 00:35:00,
2013-09-28 20:40:00,57.2,53.7,30.26,ENE,68,0.0,0.0,88,0.00,,,0.00,0,Wunderground v.1.15,2013-09-29 00:40:00,
2013-09-28 20:50:00,56.9,53.7,30.27,ENE,68,0.0,0.0,89,0.00,,,0.00,0,Wunderground v.1.15,2013-09-29 00:50:00,
2013-09-28 20:55:00,56.7,53.5,30.27,ENE,68,0.0,0.0,89,0.00,,,0.00,0,Wunderground v.1.15,2013-09-29 00:55:00,
2013-09-28 21:05:00,56.4,53.2,30.27,ENE,68,0.0,0.0,89,0.00,,,0.00,0,Wunderground v.1.15,2013-09-29 01:05:00,
2013-09-28 21:15:00,56.2,53.0,30.27,ENE,68,0.0,0.0,89,0.00,,,0.00,0,Wunderground v.1.15,2013-09-29 01:15:00,
2013-09-28 21:25:00,55.9,52.7,30.27,ENE,68,0.0,0.0,89,0.00,,,0.00,0,Wunderground v.1.15,2013-09-29 01:25:00,
2013-09-28 21:35:00,55.6,52.7,30.27,ENE,68,0.0,0.0,90,0.00,,,0.00,0,Wunderground v.1.15,2013-09-29 01:35:00,
2013-09-28 21:40:00,55.5,52.6,30.27,ENE,68,0.0,0.0,90,0.00,,,0.00,0,Wunderground v.1.15,2013-09-29 01:40:00,
2013-09-28 21:45:00,55.4,52.5,30.27,ENE,68,0.0,0.0,90,0.00,,,0.00,0,Wunderground v.1.15,2013-09-29 01:45:00,
2013-09-28 21:55:00,55.2,52.3,30.27,ENE,68,0.0,0.0,90,0.00,,,0.00,0,Wunderground v.1.15,2013-09-29 01:55:00,
2013-09-28 22:00:00,55.1,52.2,30.27,ENE,68,0.0,0.0,90,0.00,,,0.00,0,Wunderground v.1.15,2013-09-29 02:00:00,
2013-09-28 22:10:00,54.9,52.0,30.27,ENE,68,0.0,0.0,90,0.00,,,0.00,0,Wunderground v.1.15,2013-09-29 02:10:00,
2013-09-28 22:15:00,54.8,51.9,30.27,ENE,68,0.0,0.0,90,0.00,,,0.00,0,Wunderground v.1.15,2013-09-29 02:15:00,
2013-09-28 22:20:00,54.8,52.2,30.27,ENE,68,0.0,0.0,91,0.00,,,0.00,0,Wunderground v.1.15,2013-09-29 02:20:00,
2013-09-28 22:30:00,54.5,51.9,30.27,ENE,68,0.0,0.0,91,0.00,,,0.00,0,Wunderground v.1.15,2013-09-29 02:30:00,
2013-09-28 22:35:00,54.5,51.9,30.27,ENE,68,0.0,0.0,91,0.00,,,0.00,0,Wunderground v.1.15,2013-09-29 02:35:00,
2013-09-28 22:45:00,54.4,51.8,30.26,ENE,68,0.0,0.0,91,0.00,,,0.00,0,Wunderground v.1.15,2013-09-29 02:45:00,
2013-09-28 22:55:00,54.2,51.6,30.26,ENE,68,0.0,0.0,91,0.00,,,0.00,0,Wunderground v.1.15,2013-09-29 02:55:00,
2013-09-28 23:05:00,54.0,51.4,30.26,ENE,68,0.0,0.0,91,0.00,,,0.00,0,Wunderground v.1.15,2013-09-29 03:05:00,
2013-09-28 23:15:00,53.8,51.2,30.26,ENE,68,0.0,0.0,91,0.00,,,0.00,0,Wunderground v.1.15,2013-09-29 03:15:00,
2013-09-28 23:25:00,53.7,51.1,30.26,ENE,68,0.0,0.0,91,0.00,,,0.00,0,Wunderground v.1.15,2013-09-29 03:25:00,
2013-09-28 23:30:00,53.6,51.0,30.26,ENE,68,0.0,0.0,91,0.00,,,0.00,0,Wunderground v.1.15,2013-09-29 03:30:00,
2013-09-28 23:40:00,53.4,50.8,30.25,ENE,68,0.0,0.0,91,0.00,,,0.00,0,Wunderground v.1.15,2013-09-29 03:40:00,
2013-09-28 23:50:00,53.2,50.6,30.25,ENE,68,0.0,0.0,91,0.00,,,0.00,0,Wunderground v.1.15,2013-09-29 03:50:00,
2013-09-28 23:55:00,53.1,50.5,30.25,ENE,68,0.0,0.0,91,0.00,,,0.00,0,Wunderground v.1.15,2013-09-29 03:55:00,